This demonstration page uses our WeatherBlox Daily Observations layout. Learn more.

Left ArrowRight Arrow

38.83388, -104.82136

Hourly Observations for March 31, 2018

Temp ( °F °C ) Dew Point ( °F °C ) Humidity (%) Winds ( mph kmh ) Pressure ( in mb ) Visibility ( mi km ) Precip ( " mm )
12:58 am 00:58 Mostly Cloudy 48 8.8 15 -9.6 26 26 W 7 11 29.60 1003 10 16 0.00 0.00
1:58 am 01:58 Mostly Cloudy 48 8.7 15 -9.7 26 26 Calm 29.59 1002 10 16 0.00 0.00
2:58 am 02:58 Mostly Cloudy 49 9.3 13 -10.3 24 24 S 8 13 29.57 1001 10 16 0.00 0.00
3:58 am 03:58 Cloudy 49 9.3 13 -10.4 24 24 SW 8 13 29.55 1001 10 16 0.00 0.00
4:58 am 04:58 Clear 49 9.5 13 -10.7 23 23 SSW 7 11 29.55 1001 10 16 0.00 0.00
5:58 am 05:58 Clear 47 8.4 14 -10 26 26 SW 3 6 29.62 1003 10 16 0.00 0.00
6:58 am 06:58 Sunny 48 8.7 15 -9.4 27 27 SSE 10 17 29.63 1004 10 16 0.00 0.00
7:58 am 07:58 Mostly Cloudy 43 6.2 18 -8 36 36 Calm 29.69 1005 10 16 0.00 0.00
8:58 am 08:58 Mostly Cloudy 45 7.3 25 -4 45 45 NE 6 9 29.71 1006 10 16 0.00 0.00
9:58 am 09:58 Sunny 46 7.5 25 -3.7 45 45 SE 21 33 29.70 1006 10 16 0.00 0.00
10:58 am 10:58 Sunny 44 6.9 27 -2.7 51 51 SE 18 30 29.74 1007 10 16 0.00 0.00
11:58 am 11:58 Mostly Sunny 46 7.9 27 -3 46 46 SSE 17 28 29.69 1005 10 16 0.00 0.00
12:58 pm 12:58 Mostly Sunny 48 8.8 26 -3.1 43 43 SSE 17 28 29.67 1005 10 16 0.00 0.00
1:58 pm 13:58 Sunny 50 9.8 25 -3.8 38 38 SSE 23 37 29.64 1004 10 16 0.00 0.00
2:58 pm 14:58 Mostly Sunny 50 9.9 24 -4.7 36 36 SSE 20 31 29.60 1002 10 16 0.00 0.00
3:58 pm 15:58 Mostly Sunny 51 10.7 23 -5.2 33 33 SSE 22 35 29.57 1002 10 16 0.00 0.00
4:58 pm 16:58 Mostly Sunny 50 10 22 -5.3 34 34 SSE 20 31 29.59 1002 10 16 0.00 0.00
6:58 pm 18:58 Mostly Cloudy 47 8.5 24 -4.3 40 40 SSE 16 26 29.64 1004 10 16 0.00 0.00
7:59 pm 19:59 Partly Cloudy 45 7.1 24 -4.2 45 45 S 16 26 29.69 1006 10 16 0.00 0.00
8:58 pm 20:58 Mostly Cloudy 42 5.4 26 -3.3 54 54 S 14 22 29.75 1008 10 16 0.00 0.00
9:58 pm 21:58 Mostly Cloudy 37 2.7 26 -3.5 64 64 S 12 19 29.80 1009 10 16 0.00 0.00
10:58 pm 22:58 Mostly Cloudy 33 0.4 24 -4.5 70 70 S 15 24 29.81 1009 10 16 0.00 0.00
11:58 pm 23:58 Clear 28 -2.1 22 -5.5 78 78 S 16 26 29.79 1009 10 16 0.00 0.00

Powered by AerisWeather